Satellite-Ground Cal/Val Site Overpasses Predictions

Prediction of Satellite NPP Overpassing Cal/Val Site: Antarctic Dome C

Ground Cal/Val Site Location: Latitude: -75.10, Longitude: 123.35; Satellite-Ground Site NADIR distance within 100 km.

Table of predicted overpasses for the next 14.0 days since TLE Epoch: 9/18/2021
Interval Starting Time Ending Time Minimum Distance Time Minimum Distance (km)
1 09/18/2021 07:32:14 09/18/2021 07:32:43 09/18/2021 07:32:28 1.94
2 09/21/2021 14:55:43 09/21/2021 14:56:11 09/21/2021 14:55:57 25.71
3 09/22/2021 14:36:59 09/22/2021 14:37:16 09/22/2021 14:37:07 81.52
4 09/23/2021 07:38:33 09/23/2021 07:39:00 09/23/2021 07:38:47 37.53
5 09/24/2021 07:19:47 09/24/2021 07:20:07 09/24/2021 07:19:57 72.36
6 09/26/2021 15:02:03 09/26/2021 15:02:26 09/26/2021 15:02:14 62.86
7 09/27/2021 14:43:13 09/27/2021 14:43:39 09/27/2021 14:43:26 46.55
8 09/28/2021 07:44:55 09/28/2021 07:45:15 09/28/2021 07:45:05 72.65
